Location: Splawn
(30.9202°N, 96.9858°W)
Time: 15:59:46
(UTC+00:00)

Tiros 1 - All Passes

Search period start: 19 February 2020 00:00
Search period end: 29 February 2020 00:00
Orbit: 631 x 664 km, 48.4° (Epoch: 18 February)

Date Brightness Start Highest point End Pass type
(mag) Time Alt. Az. Time Alt. Az. Time Alt. Az.
19 Feb - 07:51:13 10° SSW 07:55:24 34° SE 07:59:36 10° ENE night (unlit)
19 Feb - 09:33:19 10° W 09:37:33 35° NW 09:41:48 10° NNE visible
19 Feb - 11:19:27 10° NNW 11:20:50 11° NNW 11:22:14 10° N visible
19 Feb - 14:45:00 10° NNW 14:48:33 21° NNE 14:52:06 10° ENE daylight
19 Feb - 16:26:27 10° NW 16:31:05 74° SW 16:35:44 10° SE daylight
20 Feb - 06:38:13 10° SE 06:39:41 11° SE 06:41:09 10° ESE night (unlit)
20 Feb - 08:16:41 10° SW 08:21:20 89° NW 08:25:58 10° NE night (unlit)
20 Feb - 10:00:44 10° WNW 10:04:00 19° NNW 10:07:16 10° NNE visible
20 Feb - 13:29:52 10° N 13:31:46 12° NNE 13:33:41 10° NE daylight
20 Feb - 15:10:32 10° NW 15:14:56 42° NE 15:19:20 10° ESE daylight
20 Feb - 16:53:01 10° WNW 16:56:57 27° SW 17:00:54 10° S daylight
21 Feb - 07:01:17 10° SSW 07:05:23 31° SE 07:09:29 10° ENE night (unlit)
21 Feb - 08:43:09 10° WSW 08:47:29 38° NW 08:51:47 10° NE night (unlit)
21 Feb - 10:29:04 10° NW 10:30:42 12° NNW 10:32:20 10° N visible
21 Feb - 13:55:01 10° NNW 13:58:27 20° NNE 14:01:52 10° ENE daylight
21 Feb - 15:36:24 10° NW 15:41:03 81° SW 15:45:42 10° SE daylight
22 Feb - 05:49:35 10° SE 05:49:40 10° SE 05:49:45 10° SE night (unlit)
22 Feb - 07:26:37 10° SW 07:31:17 83° SE 07:35:55 10° NE night (unlit)
22 Feb - 09:10:29 10° WNW 09:13:54 20° NNW 09:17:18 10° NNE night (unlit)
22 Feb - 12:39:57 10° N 12:41:39 12° NNE 12:43:19 10° NE visible
22 Feb - 14:20:32 10° NW 14:24:51 38° NE 14:29:11 10° ESE daylight
22 Feb - 16:02:53 10° WNW 16:06:56 30° SW 16:10:59 10° SSE daylight
23 Feb - 06:11:22 10° S 06:15:22 28° SE 06:19:20 10° ENE night (unlit)
23 Feb - 07:53:00 10° WSW 07:57:24 41° NW 08:01:48 10° NE night (unlit)
23 Feb - 09:38:42 10° NW 09:40:34 12° NNW 09:42:26 10° N visible
23 Feb - 13:05:03 10° NNW 13:08:21 19° NNE 13:11:38 10° ENE daylight
23 Feb - 14:46:22 10° NW 14:51:00 89° SSW 14:55:39 10° SE daylight
23 Feb - 16:31:24 10° WSW 16:32:38 11° SW 16:33:53 10° SW daylight
24 Feb - 06:36:34 10° SW 06:41:14 76° SE 06:45:52 10° NE night (unlit)
24 Feb - 08:20:15 10° WNW 08:23:47 21° NNW 08:27:20 10° NNE night (unlit)
24 Feb - 11:50:04 10° N 11:51:31 11° NNE 11:52:57 10° NNE visible
24 Feb - 13:30:32 10° NNW 13:34:47 35° NNE 13:39:02 10° E daylight
24 Feb - 15:12:45 10° WNW 15:16:54 33° SW 15:21:05 10° SSE daylight
25 Feb - 05:21:28 10° S 05:25:20 26° SE 05:29:11 10° ENE night (unlit)
25 Feb - 07:02:51 10° WSW 07:07:20 45° NW 07:11:48 10° NE night (unlit)
25 Feb - 08:48:21 10° NW 08:50:27 13° NNW 08:52:32 10° N night (unlit)
25 Feb - 12:15:05 10° NNW 12:18:14 18° NNE 12:21:23 10° ENE visible
25 Feb - 13:56:19 10° NW 14:00:57 83° NE 14:05:35 10° SE daylight
25 Feb - 15:40:44 10° WSW 15:42:38 12° SW 15:44:31 10° SSW daylight
26 Feb - 05:46:32 10° SW 05:51:11 68° SE 05:55:49 10° NE night (unlit)
26 Feb - 07:30:01 10° W 07:33:42 22° NNW 07:37:21 10° NNE night (unlit)
26 Feb - 11:00:12 10° N 11:01:23 11° NNE 11:02:33 10° NNE visible
26 Feb - 12:40:32 10° NNW 12:44:42 33° NNE 12:48:53 10° E daylight
26 Feb - 14:22:38 10° WNW 14:26:53 37° SW 14:31:09 10° SSE daylight
27 Feb - 04:31:36 10° S 04:35:19 23° SE 04:39:00 10° ENE night (unlit)
27 Feb - 06:12:43 10° WSW 06:17:16 49° NW 06:21:47 10° NE night (unlit)
27 Feb - 07:58:01 10° NW 08:00:19 13° NNW 08:02:36 10° N night (unlit)
27 Feb - 11:25:07 10° NNW 11:28:07 17° NNE 11:31:08 10° ENE visible
27 Feb - 13:06:17 10° NW 13:10:54 76° NE 13:15:31 10° SE daylight
27 Feb - 14:50:17 10° W 14:52:37 14° SW 14:54:58 10° SSW daylight
28 Feb - 04:56:30 10° SW 05:01:09 62° SE 05:05:45 10° NE night (unlit)
28 Feb - 06:39:47 10° W 06:43:35 24° NNW 06:47:23 10° NNE night (unlit)
28 Feb - 10:10:23 10° N 10:11:14 10° NNE 10:12:05 10° NNE visible
28 Feb - 11:50:32 10° NNW 11:54:37 30° NNE 11:58:43 10° E visible
28 Feb - 13:32:31 10° WNW 13:36:51 41° SW 13:41:11 10° SSE daylight
